Regional Weather Roundup
Issued by NWS Mobile, AL

Home | Current Version | Previous Version | Text Only | Print | Product List | Glossary On
Versions: 1 2 3 4 5 6 7 8 9 10 11 12 13 14 15 16 17 18 19 20 21 22 23 24 25 26 27 28 29 30 31 32 33 34 35 36 37 38 39 40 41 42 43 44 45 46 47 48 49 50
000
ASUS44 KMOB 260710
RWRMOB
REGIONAL WEATHER ROUNDUP
NATIONAL WEATHER SERVICE MOBILE AL
200 AM CDT SAT JUL 26 2014

NOTE: "FAIR" INDICATES FEW OR NO CLOUDS BELOW 12,000 FEET WITH NO
      SIGNIFICANT WEATHER AND/OR OBSTRUCTIONS TO VISIBILITY.

  * THESE STATIONS ARE PART OF THE UNIVERSITY OF SOUTH ALABAMA
    MESONET AND ARE NOT UNDER NWS OR FAA QUALITY CONTROL.

ALZ061>064-260800-
COASTAL ALABAMA

CITY           SKY/WX    TMP DP  RH WIND       PRES   REMARKS
MOBILE REG APT CLEAR     74  74 100 CALM      30.02F FOG
BROOKLEY FIELD MOCLDY    76  75  97 CALM      30.02F
USA CAMPUS*      N/A     73  73 100 CALM      30.01F
DOG RIVER*       N/A     75  75 100 W2        30.01F


CITY           SKY/WX    TMP DP  RH WIND       PRES   REMARKS
MOUNT VERNON*  NOT AVBL
SARALAND*      NOT AVBL
BAY MINETTE*   NOT AVBL
LOXLEY*          N/A     75  75 100 SW5       30.01F
ROBERTSDALE*     N/A    N/A N/A N/A CALM      30.01F
FAIRHOPE*        N/A     79  75  89 W2        30.01F
ELBERTA*         N/A     79  66  65 CALM      30.00F
FOLEY*         NOT AVBL
GRAND BAY*       N/A     75  73  94 N2        29.99F
DAUPHIN ISLND* NOT AVBL
BON SCOUR NWR* NOT AVBL
GULF SHORES    MOCLDY    78  76  94 W5        30.00F

$$

ALZ051>060-260800-
INTERIOR SOUTHWEST AND SOUTH CENTRAL ALABAMA

CITY           SKY/WX    TMP DP  RH WIND       PRES   REMARKS
GREENVILLE     CLEAR     74  72  93 W3        30.01F FOG
EVERGREEN      CLEAR     75  73  93 CALM      30.02F FOG
CASTLEBERRY*   NOT AVBL
ATMORE*          N/A     73  73 100 S3        30.03F
DIXIE*         NOT AVBL
ANDALUSIA/OPP  CLEAR     78  73  84 CALM      30.01F
ANDALUSIA*     NOT AVBL
FLORALA APT    CLEAR     76  74  93 CALM      30.03S FOG
FLORALA*         N/A     73  72  94 CALM      29.99F

$$

FLZ001>006-260800-
WESTERN FLORIDA PANHANDLE

CITY           SKY/WX    TMP DP  RH WIND       PRES   REMARKS
PENSACOLA      CLEAR     78  75  90 W5        30.00F
NAS PENSACOLA  CLEAR     78  76  93 CALM      30.00F
MILTON         CLEAR     76  73  91 W5        30.01F FOG
WHTNG S FIELD  CLEAR     76  73  91 CALM      30.01F


CITY           SKY/WX    TMP DP  RH WIND       PRES   REMARKS
WALNUT HILL*   NOT AVBL
JAY*           NOT AVBL
DUKE FIELD     CLEAR     78  78 100 W5        30.00F
CRESTVIEW      CLEAR     77  76  96 CALM      30.02F FOG
VALPARAISO     PTCLDY    82  78  88 W5        30.00F
DESTIN         CLEAR     83  78  85 W7        30.00F

$$

MSZ076-079-260800-
INTERIOR SOUTHEAST MISSISSIPPI

CITY           SKY/WX    TMP DP  RH WIND       PRES   REMARKS
LEAKESVILLE*   NOT AVBL
AGRICOLA*      NOT AVBL

$$

MARINE OBSERVATIONS

STATION/POSITION TIME  TEMP    WIND        PRES    WAVE
                       AIR SEA DIR/SP/G            HT/PER
                 (UTC) (F)     (DEG/KT/KT) (MB)    (FT/S)
PASCAGOULA       0700   83     240/  5/ 10 1015.7F
PETIT BOIS ISLND 0700   83     260/ 13/ 15 1016.4F
GRAND BAY        0600   82     210/  8     1018.0S
KATRINA CUT      0600   81     260/ 16     1016.9F
CEDAR POINT      0500   78     230/ 15     1016.3F
E DAUPHIN ISLAND 0600   80     240/  8/ 11 1016.1F
MIDDLE BAY LIGHT 0600   82     270/ 11     1015.2F
USCG MOBILE BAY  0700   77 84  310/  3/  3 1015.0F
STATE DOCKS      0700   77 85              1015.9F
MEAHER PARK      0600   81     240/  7     1015.9F
WEEKS BAY        0600   78                   N/A
FORT MORGAN      0700   83     260/ 14/ 16 1015.5F
12 S ORANGE BCH  0700   83 84  250/ 14/ 16 1015.9F   2/ 4
PENSACOLA BAY    0700   82 86  290/  2/  3 1016.4F
64 S DAUPHIN ISL 0600   84 84  250/ 14/ 16 1017.0F
67 S FORT MORGAN 0600   83                 1016.9F

$$

SELECTED LOCATIONS ACROSS THE REGION

CITY           SKY/WX    TMP DP  RH WIND       PRES   REMARKS
NEW ORLEANS    MOCLDY    79  75  87 SW6       30.01F
GULFPORT       PTCLDY    80  75  84 CALM      30.00F
PASCAGOULA AP  CLEAR     77  75  93 CALM      30.00F
PASCAGOULA*      N/A     79  79 100 CALM      30.00F
HATTIESBURG    CLEAR     76  73  91 CALM      30.02F
LAUREL         CLEAR     75  72  88 CALM      30.03S
MERIDIAN       CLEAR     71  69  93 CALM      30.01S
JACKSON        CLEAR     73  71  93 CALM      30.01F
MONTGOMERY     CLEAR     76  73  91 SW5       30.01F FOG
TROY           CLEAR     73  72  96 CALM      30.02F FOG
KINSTON*       NOT AVBL
GENEVA*          N/A     72  70  94 CALM      30.03F
ASHFORD*       NOT AVBL
DOTHAN         CLEAR     75  73  93 SW5       30.05F
PANAMA CITY    PTCLDY    78  76  93 S3        30.00F

$$




USA.gov is the U.S. government's official web portal to all federal, state and local government web resources and services.